Location: Unspecified
(0.0000°N, 0.0000°E)
Time: 15:49:31
(UTC+00:00)

deb Midas - Visible Passes

Search period start: 15 June 2025 00:00
Search period end: 25 June 2025 00:00
Orbit: 3638 x 3734 km, 88.4° (Epoch: 13 June)

Date Brightness Start Highest point End Pass type
(mag) Time Alt. Az. Time Alt. Az. Time Alt. Az.
15 Jun ? 19:56:44 30° SE 20:06:11 47° E 20:23:55 10° NNE visible
15 Jun ? 22:44:00 25° SW 22:51:54 34° W 23:08:08 10° NW visible
16 Jun ? 18:25:07 10° E 18:27:46 10° E 18:30:24 10° ENE visible
16 Jun ? 20:53:58 10° S 21:13:07 88° W 21:32:31 10° N visible
17 Jun ? 19:17:52 10° SE 19:34:23 36° E 19:50:42 10° NNE visible
17 Jun ? 22:02:48 10° SSW 22:20:05 45° W 22:37:51 10° NNW visible
18 Jun ? 20:22:10 10° S 20:41:17 76° E 21:00:29 10° N visible
18 Jun ? 23:17:15 10° SW 23:26:52 16° W 23:36:45 10° WNW visible
19 Jun ? 18:48:09 10° SE 19:02:36 26° E 19:16:49 10° NE visible
19 Jun ? 21:29:56 10° S 21:48:14 57° W 22:06:57 10° NNW visible
20 Jun ? 19:50:44 10° SSE 20:09:26 61° E 20:28:07 10° N visible
20 Jun ? 22:41:40 10° SW 22:55:07 24° W 23:08:58 10° NW visible
21 Jun ? 18:19:48 10° ESE 18:30:52 18° E 18:41:45 10° NE visible
21 Jun ? 20:57:28 10° S 21:16:23 72° W 21:35:38 10° NNW visible
22 Jun ? 19:19:43 10° SSE 19:37:36 48° E 19:55:23 10° NNE visible
22 Jun ? 22:07:33 10° SSW 22:23:19 33° W 22:39:32 10° NW visible
23 Jun ? 20:25:20 10° S 20:44:32 88° W 21:03:56 10° N visible
24 Jun ? 18:49:13 10° SSE 19:05:48 36° E 19:22:11 10° NNE visible
24 Jun ? 21:34:11 10° SSW 21:51:29 44° W 22:09:15 10° NNW visible
